Location: *
(49.4547°N, 7.9131°E)
Time: 02:50:22
(UTC+00:00)

USA 245 - Pass Details

Date: 22 September 2019
Orbit: 266 x 999 km, 97.9° (Epoch: 04 October)

Event Time Altitude Azimuth Distance (km) Brightness Sun altitude
Exits shadow 20:14:05 67° 89° (E) 986 4.2 -26.3°
Maximum altitude 20:14:21 68° 72° (ENE) 977 4.3 -26.3°
Drops below altitude 10° 20:19:45 10° 351° (N) 2,402 7.1 -27.0°
Sets 20:21:56 0° 349° (N) 3,237 7.9 -27.3°
